Location: *
(48.2422°N, 3.1219°W)
Time: 06:57:22
(UTC+00:00)

Daily predictions for brighter satellites

Satellite Brightness Start Highest point End
(mag) Time Altitude Azimuth Time Altitude Azimuth Time Altitude Azimuth
CORIOLIS 4.2 17:33:15 10° SSE 17:38:36 81° ENE 17:43:59 10° NNW
Unknown 4.4 17:34:55 10° W 17:38:54 44° N 17:42:54 10° ENE
Unknown 4.3 17:36:23 10° W 17:40:23 44° N 17:44:22 10° ENE
Unknown 4.4 17:39:43 10° W 17:43:42 44° N 17:47:41 10° ENE
FALCON 9 DEB 3.2 17:40:46 10° WNW 17:44:15 73° NNE 17:47:43 10° ESE
Unknown 4.4 17:41:23 10° W 17:45:22 44° N 17:49:21 10° ENE
H-2A R/B 2.9 17:42:07 10° SSE 17:46:01 86° WSW 17:49:59 10° NNW
ATLAS 3B R/B 4.2 17:42:58 10° SE 17:46:05 14° ESE 17:49:10 10° ENE
Unknown 4.4 17:43:18 10° WNW 17:47:16 43° N 17:51:15 10° ENE
Unknown 4.4 17:44:47 10° W 17:48:45 43° N 17:52:44 10° ENE
Cosmos 2082 Rocket 2.6 17:43:34 10° NNW 17:49:03 45° NE 17:54:30 10° SE
Nadezhda 3 Rocket 4.3 17:43:06 10° SSW 17:49:24 77° W 17:55:49 10° N
Unknown 4.4 17:46:25 10° WNW 17:50:23 43° N 17:54:22 10° ENE
NOAA 12 4.1 17:45:49 10° SSE 17:51:05 76° ENE 17:56:25 10° NNW
Cosmos 1535 Rocket 4.5 17:44:58 10° N 17:51:12 80° E 17:57:19 10° SSE
CENTAUR R/B 3.9 17:49:39 10° SE 17:52:55 15° ESE 17:56:25 10° ENE
Unknown 4.3 17:49:05 10° WNW 17:52:57 41° N 17:56:45 10° ENE
Cosmos 1939 Rocket 4.3 17:50:43 10° ESE 17:53:30 18° ENE 17:56:19 10° NNE
Unknown 4.4 17:49:47 10° WNW 17:53:46 43° N 17:57:42 10° ENE
Unknown 4.4 17:51:24 10° WNW 17:55:23 43° N 17:59:15 11° ENE
Cosmos 1844 Rocket 3.8 17:50:51 10° SW 17:56:16 46° NW 18:01:41 10° NNE
Cosmos 2228 3.5 17:52:10 10° SSW 17:56:29 66° W 18:00:49 10° N
Unknown 4.4 17:53:07 10° WNW 17:57:05 42° N 18:00:52 11° ENE
BREEZE-M DEB (TANK) 4.0 17:52:43 10° SW 17:57:32 29° SSE 17:59:43 12° E
Falcon 9 debris 3.1 17:54:19 10° WNW 17:57:47 88° SSW 18:01:14 10° ESE
Unknown 4.4 17:54:45 10° WNW 17:58:43 42° N 18:02:26 11° ENE
Unknown 3.1 17:58:04 10° WNW 18:01:36 81° NNE 18:05:02 11° ESE
Unknown 4.4 17:58:11 10° WNW 18:02:09 42° N 18:05:42 12° ENE
SKYMED 2 3.9 17:58:12 10° NNE 18:02:22 43° E 18:06:31 10° S
Unknown 4.4 17:58:42 10° WNW 18:02:36 41° N 18:06:04 13° ENE
Cosmos 921 Rocket 3.9 17:58:37 10° SW 18:03:01 54° WNW 18:07:23 10° NNE
Envisat 2.9 17:57:58 10° SSE 18:03:02 75° ENE 18:08:07 10° N
Unknown 4.4 17:59:10 10° WNW 18:03:08 42° N 18:06:38 13° ENE
YAOGAN 1 3.0 17:59:17 10° SE 18:03:19 41° ENE 18:07:25 10° N
Unknown 4.4 17:59:57 10° WNW 18:03:56 42° N 18:07:23 13° ENE
Unknown 4.4 18:01:45 10° WNW 18:05:43 42° N 18:09:06 13° ENE
Cosmos 1356 3.6 18:04:11 10° SSW 18:07:36 75° WNW 18:11:04 10° N
Shenzhou-11 Module 4.4 18:05:53 10° WSW 18:07:41 16° SSW 18:09:27 10° SSE
Cosmos 1703 3.4 18:03:54 10° NNW 18:07:52 81° W 18:11:46 10° S
Unknown 4.4 18:04:53 10° WNW 18:08:50 42° N 18:12:06 14° ENE
COSMOS 2406 4.2 18:03:28 10° NW 18:09:03 52° WSW 18:14:36 10° S
Cosmos 292 Rocket 4.0 18:04:53 10° SSW 18:09:38 73° WNW 18:14:25 10° NNE
Unknown 3.7 18:06:32 10° WNW 18:10:13 53° NNE 18:12:58 16° E
Cosmos 1898 Rocket 4.4 18:05:45 10° N 18:10:21 29° NE 18:14:40 11° ESE
COBE Rocket 3.9 18:06:53 10° NNE 18:12:04 76° ESE 18:17:05 10° S
Unknown 4.4 18:08:13 10° WNW 18:12:11 42° N 18:15:17 15° ENE
BREEZE M DEB (TANK) 2.5 18:10:21 10° W 18:12:33 51° SSW 18:17:11 10° ESE
H-2A R/B 3.8 18:11:50 13° ENE 18:13:10 14° NE 18:15:47 10° NNE
Cosmos 1726 2.4 18:10:11 10° SSW 18:13:48 68° W 18:17:27 10° N
Unknown 4.4 18:09:51 10° WNW 18:13:49 42° N 18:16:51 16° ENE
ATLAS 5 CENTAUR R/B 3.6 18:10:47 10° W 18:14:31 24° NNW 18:18:38 10° NNE
Unknown 4.4 18:11:29 10° WNW 18:15:26 42° N 18:18:25 16° ENE
Unknown 4.4 18:13:11 10° WNW 18:17:08 42° N 18:20:02 17° ENE
Cosmos 2100 Rocket 4.4 18:14:37 10° N 18:20:23 39° ENE 18:26:05 10° SE
USA 238 DEB 3.8 18:15:08 10° SSW 18:21:40 58° ESE 18:28:27 10° NE
USA 238 3.8 18:15:15 10° SSW 18:21:46 58° ESE 18:28:32 10° NE
Unknown 3.4 18:19:28 10° WNW 18:22:58 69° SSW 18:25:41 16° SE
USA 116 3.8 18:19:57 10° NNE 18:23:02 38° E 18:26:23 10° S
Unknown 4.4 18:19:54 10° WNW 18:23:52 42° N 18:26:27 19° ENE
Cosmos 1908 3.3 18:20:24 10° SSW 18:24:18 80° W 18:28:12 10° N
Cosmos 1461 3.6 18:21:00 10° NW 18:25:00 55° WSW 18:29:09 10° SSE
Abrixas rocket 2.0 18:22:29 10° WSW 18:25:33 78° S 18:27:03 27° E
Unknown 4.4 18:21:35 10° WNW 18:25:33 42° N 18:28:04 20° ENE
CZ-4 R/B 1.4 18:21:58 10° SSE 18:26:11 88° ENE 18:30:27 10° NNW
Unknown 4.4 18:23:14 10° WNW 18:27:12 42° N 18:29:39 20° ENE
Unknown 4.3 18:24:54 10° WNW 18:28:51 42° N 18:31:13 21° ENE
Unknown 4.3 18:26:32 10° WNW 18:30:31 42° N 18:32:48 22° ENE
Cosmos 2278 Rocket 2.2 18:25:03 10° SSW 18:30:44 86° WNW 18:36:28 10° NNE
ATLAS CENTAUR R/B 3.6 18:29:10 10° NNW 18:31:32 14° NNE 18:33:06 12° NE
Unknown 4.3 18:29:54 10° WNW 18:33:52 43° N 18:36:01 23° ENE
Starlink (trailer) 4.3 18:31:33 10° WNW 18:35:31 43° N 18:37:35 24° ENE
Cosmos 2297 4.2 18:30:47 10° S 18:35:58 37° ESE 18:41:12 10° NE
Cosmos 1153 Rocket 4.4 18:29:49 10° N 18:35:59 76° E 18:42:08 10° SSE
Unknown 4.3 18:33:16 10° WNW 18:37:15 43° N 18:39:14 25° ENE
Unknown 4.3 18:34:55 10° WNW 18:38:54 43° N 18:40:49 26° ENE
CSL-04 Rocket 3.7 18:33:52 10° SSE 18:39:24 89° WSW 18:44:54 10° NNW
SJ 16-02 2.2 18:36:23 10° N 18:40:14 29° ENE 18:41:02 27° ENE
Cosmos 2084 Rocket 3.5 18:36:49 10° NW 18:41:16 84° SW 18:44:44 16° SE
YAOGAN 6 3.1 18:37:39 10° S 18:41:16 62° W 18:44:52 10° NNW
Unknown 4.3 18:38:48 10° WNW 18:42:47 43° N 18:44:30 28° ENE
NOSS 3-2 (A) 3.4 18:38:24 10° SSW 18:44:07 66° SE 18:50:14 12° NE
Unknown 4.3 18:41:35 10° WNW 18:45:35 44° N 18:47:12 29° ENE
Ariane Rocket 3.1 18:40:45 10° SE 18:45:43 54° ENE 18:50:42 10° N
ARGOS 4.3 18:46:31 22° ENE 18:46:48 22° ENE 18:50:54 10° N
Unknown 4.3 18:43:18 10° WNW 18:47:18 44° N 18:48:50 30° ENE
Unknown 3.5 18:44:53 10° WNW 18:48:41 62° NNE 18:49:50 40° E
Unknown 4.3 18:44:53 10° WNW 18:48:55 45° N 18:50:25 31° ENE
EO 1 Delta rocket 4.1 18:44:36 10° S 18:49:14 78° W 18:54:29 10° NNW
Cosmos 468 Rocket 4.5 18:44:32 10° SSE 18:49:19 36° ESE 18:52:10 21° NE
HJ-1C 4.0 18:50:51 37° NE 18:50:51 37° NE 18:53:32 10° N
COSMO-SKYMED 1 3.1 18:46:11 10° N 18:50:30 62° WNW 18:54:47 10° SSW
Unknown 4.2 18:46:36 10° WNW 18:50:36 45° N 18:51:59 32° ENE
Unknown 4.2 18:48:22 10° WNW 18:52:23 45° N 18:53:41 33° NE
Cosmos 1892 3.9 18:49:57 10° N 18:52:12 25° NE 18:52:12 25° NE
Unknown 4.2 18:51:42 10° WNW 18:55:43 46° N 18:56:52 35° NE
Unknown 4.2 18:51:42 10° WNW 18:55:43 46° N 18:56:53 36° NE
Unknown 4.2 18:53:14 10° WNW 18:57:15 46° N 18:58:21 36° NE
Cosmos 990 Rocket 4.0 18:54:16 10° NNW 18:59:27 61° ENE 19:02:11 27° SE
NOAA 11 4.1 18:54:01 10° SSE 18:59:27 83° ENE 19:04:55 10° NNW
Cosmos 1833 Rocket 3.9 18:54:37 10° NW 18:59:53 43° WSW 19:05:09 10° S
Unknown 4.2 18:56:31 10° WNW 19:00:32 46° N 19:01:29 38° NE
Cosmos 1937 Rocket 3.6 18:55:38 10° NNW 19:00:39 49° ENE 19:02:14 37° ESE
ADEOS Rocket 4.0 18:55:11 10° NNE 19:01:45 31° E 19:03:33 28° ESE
Unknown 4.1 18:59:56 10° WNW 19:03:58 47° N 19:04:46 41° NE
Unknown 4.1 19:01:36 10° WNW 19:05:38 48° N 19:06:22 42° NE
Cosmos 1766 Rocket 3.9 19:02:36 10° N 19:06:20 42° ENE 19:06:20 42° ENE
Cosmos 1459 Rocket 3.9 19:00:59 10° N 19:07:15 76° E 19:13:34 10° SSE
Unknown 4.0 19:03:16 10° WNW 19:07:19 48° NNE 19:07:58 44° NE
Unknown 4.0 19:04:57 10° WNW 19:09:01 49° NNE 19:09:35 45° NE
NOSS 3-2 (C) 3.3 19:04:51 10° SSW 19:10:35 66° SE 19:14:29 25° NE
Cosmos 1076 Rocket 4.0 19:07:23 10° NNW 19:11:42 60° W 19:15:57 10° S
Unknown 4.0 19:08:18 10° WNW 19:12:21 50° NNE 19:12:47 47° NE
Lacrosse 5 3.1 19:07:46 10° WNW 19:12:26 38° SW 19:16:09 15° SSE
CZ-2C R/B 4.4 19:13:11 26° NE 19:13:11 26° NE 19:17:08 10° N
Cosmos 1300 3.0 19:09:06 10° SSW 19:12:54 67° W 19:16:44 10° N
Cosmos 2058 3.0 19:09:18 10° NNW 19:13:32 77° W 19:17:29 11° S
Unknown 3.9 19:10:01 10° WNW 19:14:05 50° NNE 19:14:26 49° NNE
Unknown 3.3 19:10:20 10° WNW 19:14:15 73° NNE 19:14:22 72° NE
Cosmos 2061 Rocket 3.9 19:08:53 10° N 19:15:07 66° ENE 19:19:53 17° SSE
Unknown 3.9 19:11:36 10° WNW 19:15:39 50° NNE 19:15:56 49° NNE
Unknown 3.9 19:13:12 10° WNW 19:17:16 51° NNE 19:17:29 50° NNE
Unknown 3.9 19:14:56 10° WNW 19:19:00 52° NNE 19:19:09 51° NNE
Unknown 4.0 19:16:25 10° WNW 19:20:29 51° NNE 19:20:34 50° NNE
Okean 3 Rocket 3.4 19:15:57 10° N 19:20:31 80° E 19:21:40 50° SSE
CZ-2D R/B 4.1 19:18:15 10° S 19:22:00 50° W 19:25:48 10° NNW
MOS 1 4.1 19:19:18 27° SSE 19:22:29 75° ENE 19:28:08 10° NNW
SL-27 R/B 4.5 19:20:01 10° N 19:21:06 19° N 19:21:06 19° N
Unknown 4.0 19:19:43 10° WNW 19:23:44 52° N 19:23:44 52° N
Unknown 4.0 19:21:23 10° WNW 19:25:20 52° N 19:25:20 52° N
Cosmos 1763 Rocket 3.5 19:20:20 10° S 19:25:17 56° ESE 19:25:17 56° ESE
Resurs 01 Rocket 4.0 19:29:47 12° NNE 19:29:47 12° NNE 19:30:16 10° NNE
SJ-11-01 4.1 19:27:10 69° E 19:27:20 70° ENE 19:32:01 10° N
Unknown 4.0 19:23:16 10° WNW 19:27:08 54° N 19:27:08 54° N
Cosmos 1939 Rocket 3.7 19:24:11 10° S 19:28:04 49° W 19:32:04 10° NNW
Unknown 4.0 19:24:46 10° WNW 19:28:34 52° N 19:28:34 52° N
Cosmos 2151 3.0 19:26:02 10° N 19:29:51 67° NNE 19:29:51 67° NNE
Unknown 4.1 19:26:23 10° WNW 19:30:08 52° N 19:30:08 52° N
Unknown 4.0 19:28:32 10° WNW 19:32:02 57° NNW 19:32:02 57° NNW
Cosmos 2082 Rocket 3.7 19:27:56 10° NW 19:33:02 35° WSW 19:38:06 10° S
Unknown 4.1 19:29:45 10° WNW 19:33:21 52° NNW 19:33:21 52° NNW
IRS-1A Rocket 4.4 19:29:55 11° S 19:35:13 70° WSW 19:40:46 10° NNW
Unknown 4.2 19:31:21 10° WNW 19:34:54 51° NNW 19:34:54 51° NNW
ATLAS 3B R/B 2.5 19:28:54 10° SSW 19:35:33 67° SE 19:37:32 46° ENE
SPOT 3 Rocket 3.6 19:36:39 58° NE 19:36:39 58° NE 19:41:22 10° N
Cosmos 2173 Rocket 4.2 19:30:38 10° NNW 19:36:50 68° W 19:42:55 10° S
Unknown 4.2 19:33:03 10° WNW 19:36:31 50° NNW 19:36:31 50° NNW
Unknown 4.3 19:34:41 10° WNW 19:38:05 50° NNW 19:38:05 50° NNW
CENTAUR R/B 2.4 19:36:10 10° SSW 19:42:09 76° SE 19:44:14 47° NE
Unknown 4.4 19:38:05 10° WNW 19:41:21 48° NNW 19:41:21 48° NNW
Unknown 4.4 19:38:22 10° WNW 19:41:33 48° NW 19:41:33 48° NW
Cosmos 1864 Rocket 4.3 19:36:36 10° N 19:42:47 79° E 19:44:33 49° SSE
Unknown 4.4 19:39:03 10° WNW 19:42:17 48° NNW 19:42:17 48° NNW
Unknown 4.4 19:39:49 10° WNW 19:43:02 48° NW 19:43:02 48° NW
Unknown 4.5 19:41:37 10° WNW 19:44:45 47° NW 19:44:45 47° NW
Cosmos 44 3.4 19:41:35 10° SW 19:46:28 67° NW 19:46:50 64° NNW
Cosmos 1802 Rocket 4.3 19:42:10 10° NNW 19:48:34 68° W 19:54:52 10° S
Cosmos 2123 Rocket 3.8 19:45:06 10° S 19:51:23 79° E 19:57:40 10° N
H-2A R/B 2.3 19:52:27 60° NNE 19:52:27 60° NNE 19:57:04 10° N
Cosmos 1898 Rocket 4.3 19:47:35 10° NNW 19:52:39 48° WSW 19:55:01 29° SSW
Cosmos 2233 Rocket 4.0 19:51:49 10° N 19:57:25 63° NE 19:57:25 63° NE
Cosmos 1725 Rocket 4.0 19:54:10 10° N 20:00:28 80° W 20:02:16 50° S
ATLAS 5 CENTAUR R/B 4.2 19:58:04 10° NW 20:01:01 15° N 20:01:57 15° NNE
ATLAS CENTAUR R/B 3.6 20:07:28 10° NNW 20:09:18 21° NNW 20:09:18 21° NNW
Cosmos 2278 Rocket 4.5 20:11:31 10° W 20:15:41 20° NW 20:19:52 10° N
SJ 16-02 3.1 20:14:54 10° NW 20:18:03 31° W 20:18:03 31° W
ARGOS 4.0 20:28:03 47° NW 20:28:03 47° NW 20:32:01 10° NNW
ADEOS Rocket 3.7 20:40:10 10° N 20:47:44 65° WNW 20:50:26 40° SW
ATLAS 3B R/B 4.0 21:20:29 10° W 21:24:50 32° WNW 21:24:50 32° WNW
CENTAUR R/B 4.2 21:27:38 10° W 21:31:29 30° WNW 21:31:29 30° WNW
